sat.trackr.live / text

‹ back to catalog

FLOCK 4BE-14

NORAD 60517 · 2024-149BB

PAYLOAD ACTIVE UNKNOWN

§ Identity

Operator
Country
US
Launch date
2024-08-16
Launch site
AFWTR
Launch vehicle
Mass (kg)
RCS (m²)

Purposes: earth_obs

External: N2YO · Heavens-Above · Gunter

§ Orbital elements

Epoch: 2026-09-19T00:58:37.054560Z

Period
93.25 min
Inclination
97.3635°
Eccentricity
0.0003156
Mean motion
15.44286383 rev/d
Perigee alt
431.3 km
Apogee alt
435.6 km
Semi-major
6,811.6 km
B*
6.0934e-4
RAAN
346.7891°
Arg perigee
318.1142°
Mean anomaly
41.9864°
Rev number
11,679

§ Raw data

FLOCK 4BE-141 60517U 24149BB  26262.04070665  .00028021  00000+0  60934-3 0  99922 60517  97.3635 346.7891 0003156 318.1142  41.9864 15.44286383116797

JSON: /api/v1/satellites/60517 · /tle

For live sub-satellite position, see the globe view (requires WebGL).

§ Visibility from observer

Set your observer location to see the next 7 days of passes ≥ 10°. The values pass through the URL so the page stays shareable.

No JS? Fill the form by hand. The geolocation button needs JavaScript.